Tracking 30922 objects as of 2-Jul-2025
HD Live streaming from Space Station
objects crossing your sky now

FLOCK 4Q 16

Track FLOCK 4Q 16 now!
10-day predictions
FLOCK 4Q 16 is classified as:


NORAD ID: 58271
Int'l Code: 2023-174R
Perigee: 467.3 km
Apogee: 478.0 km
Inclination: 97.4 °
Period: 93.9 minutes
Semi major axis: 6843 km
RCS: Unknown
Launch date: November 11, 2023
Source: United States (US)
Launch site: AIR FORCE WESTERN TEST RANGE (AFWTR)
Your satellite tracking list
Your tracking list is empty




NASA's NSSDC Master Catalog

Two Line Element Set (TLE):
1 58271U 23174R   25182.75924824  .00008645  00000-0  26962-3 0  9990
2 58271  97.4139 261.5751 0007786 352.8070   7.3059 15.33449216 91617
Source of the keplerian elements: AFSPC